Stündliche Wetter Holm

Heute, 22 Juni, Dienstag

Zeit Temperatur Niederschläge Wind Luftdruck Luftfeuchtigkeit
00:00 +20°C° 0 mm 2 m/S 744 mmHg 91%
01:00 +19°C° 0 mm 2 m/S 745 mmHg 91%
02:00 +19°C° 0 mm 2 m/S 744 mmHg 90%
03:00 +19°C° 0 mm 2 m/S 745 mmHg 89%
04:00 +20°C° 0 mm 2 m/S 745 mmHg 87%
05:00 +20°C° 0 mm 2 m/S 745 mmHg 86%
06:00 +23°C° 0 mm 2 m/S 745 mmHg 80%
07:00 +25°C° 0 mm 3 m/S 745 mmHg 75%
08:00 +26°C° 0 mm 3 m/S 745 mmHg 68%
09:00 +28°C° 0 mm 3 m/S 745 mmHg 64%
10:00 +29°C° 0 mm 3 m/S 745 mmHg 60%
11:00 +30°C° 0 mm 3 m/S 745 mmHg 56%
12:00 +32°C° 0 mm 4 m/S 745 mmHg 56%
13:00 +32°C° 0 mm 4 m/S 745 mmHg 55%
14:00 +32°C° 0 mm 4 m/S 745 mmHg 54%
15:00 +31°C° 0 mm 3 m/S 745 mmHg 58%
16:00 +30°C° 0 mm 3 m/S 745 mmHg 63%
17:00 +30°C° 0 mm 3 m/S 745 mmHg 67%
18:00 +28°C° 0 mm 3 m/S 745 mmHg 74%
19:00 +26°C° 0 mm 3 m/S 745 mmHg 80%
20:00 +25°C° 0 mm 2 m/S 745 mmHg 87%
21:00 +24°C° 0 mm 2 m/S 745 mmHg 87%
22:00 +23°C° 0 mm 2 m/S 745 mmHg 87%
23:00 +21°C° 0 mm 2 m/S 745 mmHg 87%

Morgen, 23 Juni, Mittwoch

Zeit Temperatur Niederschläge Wind Luftdruck Luftfeuchtigkeit
00:00 +20°C° 0 mm 2 m/S 745 mmHg 87%
01:00 +20°C° 0 mm 2 m/S 745 mmHg 87%
02:00 +20°C° 0 mm 2 m/S 745 mmHg 87%
03:00 +20°C° 0 mm 2 m/S 745 mmHg 86%
04:00 +20°C° 0 mm 2 m/S 745 mmHg 85%
05:00 +21°C° 0 mm 2 m/S 746 mmHg 84%
06:00 +24°C° 0 mm 2 m/S 746 mmHg 78%
07:00 +25°C° 0 mm 3 m/S 746 mmHg 73%
08:00 +27°C° 0 mm 3 m/S 746 mmHg 67%
09:00 +28°C° 0 mm 3 m/S 746 mmHg 63%
10:00 +29°C° 0 mm 3 m/S 746 mmHg 59%
11:00 +30°C° 0 mm 3 m/S 746 mmHg 55%
12:00 +31°C° 0 mm 3 m/S 746 mmHg 53%
13:00 +31°C° 0 mm 3 m/S 746 mmHg 51%
14:00 +33°C° 0 mm 3 m/S 746 mmHg 50%
15:00 +31°C° 0 mm 3 m/S 746 mmHg 54%
16:00 +31°C° 0 mm 3 m/S 746 mmHg 59%
17:00 +30°C° 0 mm 2 m/S 745 mmHg 64%
18:00 +28°C° 0 mm 2 m/S 745 mmHg 71%
19:00 +27°C° 0 mm 2 m/S 745 mmHg 77%
20:00 +25°C° 0 mm 2 m/S 745 mmHg 84%
21:00 +24°C° 0 mm 2 m/S 745 mmHg 86%
22:00 +23°C° 0 mm 2 m/S 745 mmHg 87%
23:00 +22°C° 0 mm 1 m/S 745 mmHg 89%

übermorgen, 24 Juni, Donnerstag

Zeit Temperatur Niederschläge Wind Luftdruck Luftfeuchtigkeit
00:00 +21°C° 0 mm 2 m/S 745 mmHg 90%
01:00 +21°C° 0 mm 2 m/S 745 mmHg 90%
02:00 +20°C° 0 mm 2 m/S 745 mmHg 91%
03:00 +21°C° 0 mm 2 m/S 745 mmHg 89%
04:00 +21°C° 0 mm 2 m/S 745 mmHg 88%
05:00 +23°C° 0 mm 1 m/S 745 mmHg 87%
06:00 +25°C° 0 mm 2 m/S 745 mmHg 81%
07:00 +26°C° 0 mm 2 m/S 745 mmHg 75%
08:00 +28°C° 0 mm 2 m/S 746 mmHg 69%
09:00 +29°C° 0 mm 2 m/S 745 mmHg 65%
10:00 +30°C° 0 mm 2 m/S 745 mmHg 61%
11:00 +31°C° 0 mm 2 m/S 745 mmHg 57%
12:00 +32°C° 0 mm 2 m/S 745 mmHg 56%
13:00 +32°C° 0 mm 2 m/S 745 mmHg 54%
14:00 +32°C° 0 mm 2 m/S 745 mmHg 53%
15:00 +32°C° 0 mm 2 m/S 745 mmHg 56%
16:00 +32°C° 0 mm 2 m/S 745 mmHg 59%
17:00 +32°C° 0 mm 2 m/S 744 mmHg 62%
18:00 +30°C° 0 mm 2 m/S 744 mmHg 68%
19:00 +28°C° 0 mm 2 m/S 744 mmHg 74%
20:00 +26°C° 0 mm 2 m/S 744 mmHg 79%
21:00 +25°C° 0 mm 2 m/S 744 mmHg 81%
22:00 +25°C° 0 mm 2 m/S 744 mmHg 84%
23:00 +24°C° 0 mm 1 m/S 744 mmHg 86%

25 Juni, Freitag

Zeit Temperatur Niederschläge Wind Luftdruck Luftfeuchtigkeit
00:00 +23°C° 0.1 mm 1 m/S 744 mmHg 87%
01:00 +23°C° 0.1 mm 1 m/S 744 mmHg 88%
02:00 +22°C° 0.1 mm 1 m/S 744 mmHg 90%
03:00 +23°C° 0.1 mm 1 m/S 744 mmHg 89%
04:00 +23°C° 0.1 mm 1 m/S 743 mmHg 89%
05:00 +24°C° 0.1 mm 1 m/S 743 mmHg 88%
06:00 +25°C° 0 mm 1 m/S 743 mmHg 83%
07:00 +27°C° 0 mm 1 m/S 743 mmHg 77%
08:00 +28°C° 0 mm 1 m/S 743 mmHg 71%
09:00 +29°C° 0 mm 2 m/S 743 mmHg 67%
10:00 +30°C° 0 mm 2 m/S 743 mmHg 62%
11:00 +31°C° 0 mm 2 m/S 743 mmHg 57%
12:00 +32°C° 0 mm 2 m/S 743 mmHg 55%
13:00 +32°C° 0 mm 2 m/S 743 mmHg 53%
14:00 +34°C° 0 mm 2 m/S 743 mmHg 51%
15:00 +32°C° 0.1 mm 2 m/S 743 mmHg 57%
16:00 +31°C° 0.1 mm 3 m/S 742 mmHg 62%
17:00 +30°C° 0.1 mm 3 m/S 741 mmHg 68%
18:00 +26°C° 0.8 mm 3 m/S 742 mmHg 75%
19:00 +23°C° 0.8 mm 2 m/S 742 mmHg 83%
20:00 +19°C° 0.8 mm 1 m/S 742 mmHg 90%
21:00 +19°C° 0 mm 1 m/S 742 mmHg 91%
22:00 +19°C° 0 mm 1 m/S 742 mmHg 91%
23:00 +19°C° 0 mm 1 m/S 742 mmHg 92%

26 Juni, Samstag

Zeit Temperatur Niederschläge Wind Luftdruck Luftfeuchtigkeit
00:00 +19°C° 0 mm 1 m/S 741 mmHg 91%
01:00 +19°C° 0 mm 1 m/S 741 mmHg 90%
02:00 +19°C° 0 mm 1 m/S 741 mmHg 89%
03:00 +19°C° 0 mm 1 m/S 741 mmHg 87%
04:00 +20°C° 0 mm 1 m/S 741 mmHg 86%
05:00 +19°C° 0 mm 0 m/S 741 mmHg 84%
06:00 +20°C° 0 mm 0 m/S 741 mmHg 78%
07:00 +22°C° 0 mm 0 m/S 741 mmHg 72%
08:00 +24°C° 0 mm 0 m/S 741 mmHg 66%
09:00 +25°C° 0 mm 0 m/S 741 mmHg 63%
10:00 +27°C° 0 mm 0 m/S 741 mmHg 59%
11:00 +28°C° 0 mm 0 m/S 741 mmHg 55%
12:00 +30°C° 0 mm 1 m/S 741 mmHg 54%
13:00 +31°C° 0 mm 1 m/S 741 mmHg 53%
14:00 +31°C° 0 mm 1 m/S 741 mmHg 51%
15:00 +31°C° 0 mm 1 m/S 740 mmHg 54%
16:00 +31°C° 0 mm 1 m/S 740 mmHg 57%
17:00 +30°C° 0 mm 1 m/S 739 mmHg 60%
18:00 +29°C° 0 mm 1 m/S 739 mmHg 67%
19:00 +27°C° 0 mm 1 m/S 739 mmHg 74%
20:00 +23°C° 0 mm 0 m/S 739 mmHg 80%
21:00 +24°C° 0.6 mm 1 m/S 739 mmHg 84%
22:00 +21°C° 0.6 mm 2 m/S 739 mmHg 89%
23:00 +20°C° 0.6 mm 2 m/S 739 mmHg 93%

27 Juni, Sonntag

Zeit Temperatur Niederschläge Wind Luftdruck Luftfeuchtigkeit
00:00 +20°C° 0 mm 2 m/S 739 mmHg 93%
01:00 +19°C° 0 mm 2 m/S 739 mmHg 92%
02:00 +19°C° 0 mm 2 m/S 739 mmHg 92%
03:00 +20°C° 0 mm 1 m/S 739 mmHg 91%
04:00 +21°C° 0 mm 1 m/S 739 mmHg 91%
05:00 +21°C° 0 mm 1 m/S 739 mmHg 90%
06:00 +23°C° 0 mm 1 m/S 739 mmHg 84%
07:00 +24°C° 0 mm 1 m/S 739 mmHg 79%
08:00 +26°C° 0 mm 1 m/S 739 mmHg 74%
09:00 +27°C° 0.2 mm 1 m/S 739 mmHg 69%
10:00 +28°C° 0.2 mm 2 m/S 739 mmHg 65%
11:00 +30°C° 0.2 mm 2 m/S 740 mmHg 60%
12:00 +30°C° 0 mm 1 m/S 739 mmHg 58%
13:00 +31°C° 0 mm 1 m/S 739 mmHg 55%
14:00 +31°C° 0 mm 1 m/S 739 mmHg 53%
15:00 +31°C° 0 mm 1 m/S 739 mmHg 56%
16:00 +31°C° 0 mm 1 m/S 739 mmHg 59%
17:00 +30°C° 0 mm 1 m/S 738 mmHg 63%
18:00 +28°C° 0.4 mm 1 m/S 738 mmHg 69%
19:00 +27°C° 0.4 mm 1 m/S 739 mmHg 74%
20:00 +25°C° 0.4 mm 1 m/S 739 mmHg 80%
21:00 +22°C° 0.3 mm 0 m/S 738 mmHg 83%
22:00 +21°C° 0.3 mm 0 m/S 738 mmHg 85%
23:00 +20°C° 0.3 mm 0 m/S 738 mmHg 87%
Mehr zeigen

Wir brauchen deine Erlaubnis

Meteoprog und unser Service Anbieter werden persönliche Daten aufbewahren, so wie Cookies, Geräte Bezeichnung oder ähnliche Technologien von deinem Gerät und Prozess, so wie Persönliche Daten Inhalte und Werbungen, genauso wie social Media und den Verkehr zu analysieren.

  • Aufbewahrung und/oder Zugang zu deiner Geräte Informationen.

    Cookies, Geräte Bezeichnung oder andere Informationen, können aufbewahrt oder Zugang zu deinem Gerät erhalten, für den Grund, der oben angegeben wird.

  • Personalisierte Werbung und Inhalte, Messungen, Einblick in das Publikum und Produkt Entwicklung.

    Werbungen und Inhalte können personalisiert werden, basierend auf ein Profil. Mehr Daten können besser personalisierte Werbungen und Inhalte hinzufügen. Werbung und Inhalte können gezeigt und gemessen werden. Einblicke über das Publikum, welche die Werbung gesehen haben und den Inhalt, können abgeleitet werden. So wie Daten können genutzt werden, um es zu verbessern oder die Benutzer Erfahrung zu verbessern das System und die Software.

Wenn du “Ich stimme zu” klickst, erlaubst du uns, die Cookies zu benutzen die Geräte Bezeichnung, den Web oder ähnliche Technologien zu benutzen. Deine Settings, können in deinem Gerät bei deinem Browser geändert werden.

Für den bestimmten Zweck, berechtigten Interessen beruhen darauf, mehr als auf den Inhalt. Du kannst mehr darüber in unseren Privaten und Cookie Politik lesen.